Greensboro, NC

8:34 AM EST on November 23, 2017 (GMT -0500)
Piedmont Triad International

Weather History for KGSO - May, 2012

Change the Weather History Date:

Monday, May 21, 2012

  Actual Average Record
Temperature  
Mean Temperature 73 °F 68 °F  
Max Temperature 82 °F 79 °F 96 °F (1941)
Min Temperature 63 °F 58 °F 42 °F (1954)
Degree Days  
Heating Degree Days 0 1  
Month to date heating degree days 17 57  
Since 1 July heating degree days 2839 3603  
Cooling Degree Days 8 5  
Month to date cooling degree days 97 64  
Year to date cooling degree days 160 102  
Growing Degree Days 22 (Base 50)    
Moisture  
Dew Point 59 °F    
Average Humidity 71    
Maximum Humidity 93    
Minimum Humidity 48    
Precipitation  
Precipitation T in 0.11 in 2.60 in (1909)
Month to date precipitation 4.41 2.20  
Year to date precipitation 13.23 15.52  
Sea Level Pressure  
Sea Level Pressure 29.96 in    
Wind  
Wind Speed 4 mph (North)    
Max Wind Speed 14 mph    
Max Gust Speed 25 mph    
Visibility 10 miles    
Events Rain    
T = Trace of Precipitation, MM = Missing Value Source: NWS Daily Summary

Daily Weather History Graph

Daily Weather History Graph

Search for Another Location

Airport or City:

Trip Planner

Search our weather history database for the weather conditions in past years. The results will help you decide how hot, cold, wet, or windy it might be!

Date:

Astronomy

May. 21, 2012 Rise Set
Actual Time 6:09 AM EDT 8:24 PM EDT
Civil Twilight 5:40 AM EDT 8:53 PM EDT
Nautical Twilight 5:04 AM EDT 9:28 PM EDT
Astronomical Twilight 4:25 AM EDT 10:07 PM EDT
Moon 6:31 AM EDT (5/21) 9:12 PM EDT (5/21)
Length of Visible Light 15h 13m
Length of Day
14h 14m
New Moon, 0% of the Moon is Illuminated
May 21
New Moon
May 28
First Quarter
Jun 4
Full
Jun 11
Last Quarter
Jun 19
New

Hourly Weather History & Observations

Time (EDT) Temp. Heat Index Dew Point Humidity Pressure Visibility Wind Dir Wind Speed Gust Speed Precip Events Conditions
12:54 AM 64.0 °F - 57.9 °F 80% 30.03 in 10.0 mi Calm Calm - N/A   Partly Cloudy
1:54 AM 64.9 °F - 59.0 °F 81% 30.02 in 10.0 mi ENE 4.6 mph - N/A   Mostly Cloudy
2:54 AM 64.9 °F - 59.0 °F 81% 30.01 in 10.0 mi North 3.5 mph - N/A   Overcast
3:54 AM 64.0 °F - 60.1 °F 87% 30.02 in 9.0 mi NW 6.9 mph - 0.00 in Rain Light Rain
4:54 AM 63.0 °F - 60.1 °F 90% 30.02 in 10.0 mi WNW 6.9 mph - 0.00 in   Overcast
5:54 AM 63.0 °F - 60.1 °F 90% 30.03 in 10.0 mi WNW 5.8 mph - N/A   Mostly Cloudy
6:54 AM 64.0 °F - 60.1 °F 87% 30.04 in 10.0 mi Calm Calm - N/A   Mostly Cloudy
7:54 AM 66.0 °F - 59.0 °F 78% 30.02 in 10.0 mi Calm Calm - N/A   Mostly Cloudy
8:54 AM 70.0 °F - 60.1 °F 71% 30.02 in 10.0 mi ENE 3.5 mph - N/A   Scattered Clouds
9:54 AM 72.0 °F - 60.1 °F 66% 30.01 in 10.0 mi East 3.5 mph - N/A   Scattered Clouds
10:54 AM 73.0 °F - 60.1 °F 64% 29.99 in 10.0 mi Variable 4.6 mph - N/A   Scattered Clouds
11:54 AM 77.0 °F - 60.1 °F 56% 29.98 in 10.0 mi Variable 5.8 mph - N/A   Scattered Clouds
12:54 PM 78.1 °F - 59.0 °F 52% 29.96 in 10.0 mi Calm Calm - N/A   Scattered Clouds
1:54 PM 79.0 °F - 59.0 °F 50% 29.94 in 10.0 mi Variable 3.5 mph - N/A   Scattered Clouds
2:54 PM 80.1 °F 80.9 °F 60.1 °F 50% 29.93 in 10.0 mi Calm Calm - N/A   Scattered Clouds
3:54 PM 81.0 °F 81.3 °F 59.0 °F 47% 29.90 in 10.0 mi Calm Calm - N/A   Scattered Clouds
4:54 PM 79.0 °F - 57.0 °F 47% 29.88 in 10.0 mi North 3.5 mph - N/A   Scattered Clouds
5:54 PM 78.1 °F - 57.9 °F 50% 29.86 in 10.0 mi East 6.9 mph - N/A   Scattered Clouds
6:54 PM 77.0 °F - 57.9 °F 52% 29.87 in 10.0 mi SE 10.4 mph 25.3 mph N/A   Mostly Cloudy
7:54 PM 75.9 °F - 59.0 °F 56% 29.88 in 10.0 mi SW 3.5 mph - N/A   Mostly Cloudy
8:54 PM 72.0 °F - 62.1 °F 71% 29.88 in 10.0 mi WNW 8.1 mph - N/A   Mostly Cloudy
9:54 PM 71.1 °F - 61.0 °F 70% 29.89 in 10.0 mi Calm Calm - N/A   Scattered Clouds
10:54 PM 69.1 °F - 60.1 °F 73% 29.91 in 10.0 mi West 4.6 mph - N/A   Mostly Cloudy
11:54 PM 69.1 °F - 60.1 °F 73% 29.90 in 10.0 mi Calm Calm - N/A   Mostly Cloudy